Empire, Colorado
Current Conditions -  °F | °C
As of 11:35 PM on Sunday 25 Jan 2015 (Local Time) from K0CO Reporting Station
Clear Clear  
Wind Chill: -16°   Ceiling: Unl
Heat Index: -7°   Visibility: NA
Dew Point: -10°   Wind: 22mph
Humidity: 80%   Direction: 330°NNW
Pressure: 30.5"   Gusts: 28mph
Location:  39.76°N, 105.68°W
Report Text: K0CO 260635Z AUTO 33019G24KT CLR M07/M10 A3050 RMK AO2 PWINO
Loading
Personal Weather Stations






























Interactive Weather Map New forecast layout! Learn more

10-Day Weather Forecast

Advertisements
Track Severe Weather on mobile